Weather in Novyye Salmany

Russia / Republic of Tatarstan     54°57′28″N   49°46′20″E
temp.,
°C
wind,
m/s
gust,
m/s
humid.,
%
clouds,
%
prec.,
mm/h
press.,
hPa
HPBL,
m
17 may, tue
tue1700:00+8w228716 0.0 100121
03:00+6w33925 0.0 100149
06:00+9wnw2384100 0.0 1000179
09:00+10wnw227999 0.1 1001533
12:00+7w4794100 2.7 1002275
15:00+11w457045 3.1 10011068
18:00+10wsw357834 0.9 1001322
21:00+6w22907 1.1 100125
18 may, wed
wed1800:00+5nnw119336 0.0 100110
03:00+5sw2292100 0.0 100124
06:00+7wsw5992100 0.1 1001499
09:00+7wsw61095100 1.1 1001575
12:00+8wnw6893100 1.4 1001657
15:00+8nnw5986100 2.4 1003963
18:00+8nw488699 0.1 1005587
21:00+7wnw4892100 0.4 1007212
19 may, thu
thu1900:00+5wnw489472 0.3 1007163
03:00+4w3794100 0.3 1008148
06:00+5wnw3595100 0.7 1008866
09:00+6wnw4686100 1.1 1009695
12:00+7w7888100 0.6 10091151
15:00+9wnw6764100 1.1 10091570
18:00+5wsw4694100 2.0 1009412
21:00+4wsw410958 2.5 1010268
20 may, fri
fri2000:00+3w49945 0.0 1010222
03:00+2wnw379115 0.0 1010129
06:00+4wnw478494 0.0 1011495
09:00+4wnw4696100 0.3 1012453
12:00+8wnw566967 0.6 10111139
15:00+10nw6854100 1.2 10111772
18:00+7nnw69745 0.8 1011898
21:00+5nnw598599 0.8 1012411
21 may, sat
sat2100:00+4nnw598896 0.2 1012481
03:00+3wnw4893100 0.2 1012249
06:00+5nw6108669 0.0 1011670
09:00+6nw7106289 0.0 10111220
12:00+7nnw6959100 0.0 10111636
15:00+8nnw685893 0.1 10111450
18:00+7n466573 0.0 1011992
21:00+3n228042 0.0 101134